Time,TemperatureF,DewpointF,PressureIn,WindDirection,WindDirectionDegrees,WindSpeedMPH,WindSpeedGustMPH,Humidity,HourlyPrecipIn,Conditions,Clouds,dailyrainin,SolarRadiationWatts/m^2,SoftwareType,DateUTC
2013-01-01 00:02:00,30.0,8.0,-100.00,North,4,5.0,13.0,39,0.00,,,0.00,0.000000,,2013-01-01 09:02:00,
2013-01-01 00:11:00,30.0,8.0,-100.00,North,4,5.0,13.0,39,0.00,,,0.00,0.000000,,2013-01-01 09:11:00,
2013-01-01 00:22:00,30.0,8.0,-100.00,North,4,5.0,13.0,39,0.00,,,0.00,0.000000,,2013-01-01 09:22:00,
2013-01-01 00:32:00,30.0,8.0,-100.00,North,4,5.0,13.0,39,0.00,,,0.00,0.000000,,2013-01-01 09:32:00,
2013-01-01 00:52:00,31.0,7.0,-100.00,North,11,6.0,15.0,35,0.00,,,0.00,0.000000,,2013-01-01 09:52:00,
2013-01-01 01:02:00,31.0,7.0,-100.00,North,11,6.0,15.0,35,0.00,,,0.00,0.000000,,2013-01-01 10:02:00,
2013-01-01 01:12:00,31.0,7.0,-100.00,North,11,6.0,15.0,35,0.00,,,0.00,0.000000,,2013-01-01 10:12:00,
2013-01-01 01:22:00,31.0,7.0,-100.00,North,11,6.0,15.0,35,0.00,,,0.00,0.000000,,2013-01-01 10:22:00,
2013-01-01 01:32:00,31.0,7.0,-100.00,North,11,6.0,15.0,35,0.00,,,0.00,0.000000,,2013-01-01 10:32:00,
2013-01-01 01:52:00,32.0,6.0,-100.00,NE,47,5.0,11.0,32,0.00,,,0.00,0.000000,,2013-01-01 10:52:00,
2013-01-01 02:02:00,32.0,6.0,-100.00,NE,47,5.0,11.0,32,0.00,,,0.00,0.000000,,2013-01-01 11:02:00,
2013-01-01 02:12:00,32.0,6.0,-100.00,NE,47,5.0,11.0,32,0.00,,,0.00,0.000000,,2013-01-01 11:12:00,
2013-01-01 02:22:00,32.0,6.0,-100.00,NE,47,5.0,11.0,32,0.00,,,0.00,0.000000,,2013-01-01 11:22:00,
2013-01-01 02:32:00,32.0,6.0,-100.00,NE,47,5.0,11.0,32,0.00,,,0.00,0.000000,,2013-01-01 11:32:00,
2013-01-01 02:53:00,30.0,8.0,-100.00,SW,226,4.0,7.0,38,0.00,,,0.00,0.000000,,2013-01-01 11:53:00,
2013-01-01 03:02:00,30.0,8.0,-100.00,SW,226,4.0,7.0,38,0.00,,,0.00,0.000000,,2013-01-01 12:02:00,
2013-01-01 03:12:00,30.0,8.0,-100.00,SW,226,4.0,7.0,38,0.00,,,0.00,0.000000,,2013-01-01 12:12:00,
2013-01-01 03:22:00,30.0,8.0,-100.00,SW,226,4.0,7.0,38,0.00,,,0.00,0.000000,,2013-01-01 12:22:00,
2013-01-01 03:32:00,30.0,8.0,-100.00,SW,226,4.0,7.0,38,0.00,,,0.00,0.000000,,2013-01-01 12:32:00,
2013-01-01 03:53:00,30.0,9.0,-100.00,NW,325,7.0,10.0,41,0.00,,,0.00,0.000000,,2013-01-01 12:53:00,
2013-01-01 04:02:00,30.0,9.0,-100.00,NW,325,7.0,10.0,41,0.00,,,0.00,0.000000,,2013-01-01 13:02:00,
2013-01-01 04:12:00,30.0,9.0,-100.00,NW,325,7.0,10.0,41,0.00,,,0.00,0.000000,,2013-01-01 13:12:00,
2013-01-01 04:22:00,30.0,9.0,-100.00,NW,325,7.0,10.0,41,0.00,,,0.00,0.000000,,2013-01-01 13:22:00,
2013-01-01 04:32:00,30.0,9.0,-100.00,NW,325,7.0,10.0,41,0.00,,,0.00,0.000000,,2013-01-01 13:32:00,
2013-01-01 04:52:00,31.0,14.0,-100.00,NNE,29,6.0,17.0,48,0.00,,,0.00,0.000000,,2013-01-01 13:52:00,
2013-01-01 05:02:00,31.0,14.0,-100.00,NNE,29,6.0,17.0,48,0.00,,,0.00,0.000000,,2013-01-01 14:02:00,
2013-01-01 05:12:00,31.0,14.0,-100.00,NNE,29,6.0,17.0,48,0.00,,,0.00,0.000000,,2013-01-01 14:12:00,
2013-01-01 05:22:00,31.0,14.0,-100.00,NNE,29,6.0,17.0,48,0.00,,,0.00,0.000000,,2013-01-01 14:22:00,
2013-01-01 05:32:00,31.0,14.0,-100.00,NNE,29,6.0,17.0,48,0.00,,,0.00,0.000000,,2013-01-01 14:32:00,
2013-01-01 05:53:00,32.0,15.0,-100.00,NE,52,5.0,14.0,49,0.00,,,0.00,0.000000,,2013-01-01 14:53:00,
2013-01-01 06:02:00,32.0,15.0,-100.00,NE,52,5.0,14.0,49,0.00,,,0.00,0.000000,,2013-01-01 15:02:00,
2013-01-01 06:12:00,32.0,15.0,-100.00,NE,52,5.0,14.0,49,0.00,,,0.00,0.000000,,2013-01-01 15:12:00,
2013-01-01 06:22:00,32.0,15.0,-100.00,NE,52,5.0,14.0,49,0.00,,,0.00,0.000000,,2013-01-01 15:22:00,
2013-01-01 06:32:00,32.0,15.0,-100.00,NE,52,5.0,14.0,49,0.00,,,0.00,0.000000,,2013-01-01 15:32:00,
2013-01-01 06:53:00,30.0,18.0,-100.00,NNE,24,8.0,13.0,61,0.00,,,0.00,0.000000,,2013-01-01 15:53:00,
2013-01-01 07:02:00,30.0,18.0,-100.00,NNE,24,8.0,13.0,61,0.00,,,0.00,0.000000,,2013-01-01 16:02:00,
2013-01-01 07:12:00,30.0,18.0,-100.00,NNE,24,8.0,13.0,61,0.00,,,0.00,0.000000,,2013-01-01 16:12:00,
2013-01-01 07:22:00,30.0,18.0,-100.00,NNE,24,8.0,13.0,61,0.00,,,0.00,0.000000,,2013-01-01 16:22:00,
2013-01-01 07:32:00,30.0,18.0,-100.00,NNE,24,8.0,13.0,61,0.00,,,0.00,0.000000,,2013-01-01 16:32:00,
2013-01-01 07:53:00,32.0,17.0,-100.00,NW,309,7.0,16.0,54,0.00,,,0.00,0.000000,,2013-01-01 16:53:00,
2013-01-01 08:02:00,32.0,17.0,-100.00,NW,309,7.0,16.0,54,0.00,,,0.00,0.000000,,2013-01-01 17:02:00,
2013-01-01 08:12:00,32.0,17.0,-100.00,NW,309,7.0,16.0,54,0.00,,,0.00,0.000000,,2013-01-01 17:12:00,
2013-01-01 08:22:00,32.0,17.0,-100.00,NW,309,7.0,16.0,54,0.00,,,0.00,0.000000,,2013-01-01 17:22:00,
2013-01-01 08:32:00,32.0,17.0,-100.00,NW,309,7.0,16.0,54,0.00,,,0.00,0.000000,,2013-01-01 17:32:00,
2013-01-01 08:53:00,33.0,16.0,-100.00,WNW,283,7.0,23.0,49,0.00,,,0.00,0.000000,,2013-01-01 17:53:00,
2013-01-01 09:03:00,33.0,16.0,-100.00,WNW,283,7.0,23.0,49,0.00,,,0.00,0.000000,,2013-01-01 18:03:00,
2013-01-01 09:12:00,33.0,16.0,-100.00,WNW,283,7.0,23.0,49,0.00,,,0.00,0.000000,,2013-01-01 18:12:00,
2013-01-01 09:22:00,33.0,16.0,-100.00,WNW,283,7.0,23.0,49,0.00,,,0.00,0.000000,,2013-01-01 18:22:00,
2013-01-01 09:32:00,33.0,16.0,-100.00,WNW,283,7.0,23.0,49,0.00,,,0.00,0.000000,,2013-01-01 18:32:00,
2013-01-01 09:53:00,34.0,15.0,-100.00,NW,317,7.0,11.0,46,0.00,,,0.00,0.000000,,2013-01-01 18:53:00,
2013-01-01 10:02:00,34.0,15.0,-100.00,NW,317,7.0,11.0,46,0.00,,,0.00,0.000000,,2013-01-01 19:02:00,
2013-01-01 10:12:00,34.0,15.0,-100.00,NW,317,7.0,11.0,46,0.00,,,0.00,0.000000,,2013-01-01 19:12:00,
2013-01-01 10:22:00,34.0,15.0,-100.00,NW,317,7.0,11.0,46,0.00,,,0.00,0.000000,,2013-01-01 19:22:00,
2013-01-01 10:32:00,34.0,15.0,-100.00,NW,317,7.0,11.0,46,0.00,,,0.00,0.000000,,2013-01-01 19:32:00,
2013-01-01 10:52:00,33.0,17.0,-100.00,NNE,23,6.0,19.0,51,0.00,,,0.00,2.000000,,2013-01-01 19:52:00,
2013-01-01 11:02:00,33.0,17.0,-100.00,NNE,23,6.0,19.0,51,0.00,,,0.00,2.000000,,2013-01-01 20:02:00,
2013-01-01 11:12:00,33.0,17.0,-100.00,NNE,23,6.0,19.0,51,0.00,,,0.00,2.000000,,2013-01-01 20:12:00,
2013-01-01 11:22:00,33.0,17.0,-100.00,NNE,23,6.0,19.0,51,0.00,,,0.00,2.000000,,2013-01-01 20:22:00,
2013-01-01 11:32:00,33.0,17.0,-100.00,NNE,23,6.0,19.0,51,0.00,,,0.00,2.000000,,2013-01-01 20:32:00,
2013-01-01 11:53:00,30.0,22.0,-100.00,WNW,298,5.0,14.0,73,0.00,,,0.00,16.000000,,2013-01-01 20:53:00,
2013-01-01 12:03:00,30.0,22.0,-100.00,WNW,298,5.0,14.0,73,0.00,,,0.00,16.000000,,2013-01-01 21:03:00,
2013-01-01 12:12:00,30.0,22.0,-100.00,WNW,298,5.0,14.0,73,0.00,,,0.00,16.000000,,2013-01-01 21:12:00,
2013-01-01 12:22:00,30.0,22.0,-100.00,WNW,298,5.0,14.0,73,0.00,,,0.00,16.000000,,2013-01-01 21:22:00,
2013-01-01 12:32:00,30.0,22.0,-100.00,WNW,298,5.0,14.0,73,0.00,,,0.00,16.000000,,2013-01-01 21:32:00,
2013-01-01 12:53:00,29.0,25.0,-100.00,NW,320,7.0,13.0,84,0.00,,,0.00,41.000000,,2013-01-01 21:53:00,
2013-01-01 13:02:00,29.0,25.0,-100.00,NW,320,7.0,13.0,84,0.00,,,0.00,41.000000,,2013-01-01 22:02:00,
2013-01-01 13:12:00,29.0,25.0,-100.00,NW,320,7.0,13.0,84,0.00,,,0.00,41.000000,,2013-01-01 22:12:00,
2013-01-01 13:22:00,29.0,25.0,-100.00,NW,320,7.0,13.0,84,0.00,,,0.00,41.000000,,2013-01-01 22:22:00,
2013-01-01 13:32:00,29.0,25.0,-100.00,NW,320,7.0,13.0,84,0.00,,,0.00,41.000000,,2013-01-01 22:32:00,
2013-01-01 13:52:00,30.0,21.0,-100.00,NW,309,7.0,13.0,69,0.00,,,0.00,29.000000,,2013-01-01 22:52:00,
2013-01-01 14:02:00,30.0,21.0,-100.00,NW,309,7.0,13.0,69,0.00,,,0.00,29.000000,,2013-01-01 23:02:00,
2013-01-01 14:12:00,30.0,21.0,-100.00,NW,309,7.0,13.0,69,0.00,,,0.00,29.000000,,2013-01-01 23:12:00,
2013-01-01 14:22:00,30.0,21.0,-100.00,NW,309,7.0,13.0,69,0.00,,,0.00,29.000000,,2013-01-01 23:22:00,
2013-01-01 14:32:00,30.0,21.0,-100.00,NW,309,7.0,13.0,69,0.00,,,0.00,29.000000,,2013-01-01 23:32:00,
2013-01-01 14:53:00,29.0,23.0,-100.00,NW,311,7.0,12.0,78,0.00,,,0.00,15.000000,,2013-01-01 23:53:00,
2013-01-01 15:02:00,29.0,23.0,-100.00,NW,311,7.0,12.0,78,0.00,,,0.00,15.000000,,2013-01-02 00:02:00,
2013-01-01 15:12:00,29.0,23.0,-100.00,NW,311,7.0,12.0,78,0.00,,,0.00,15.000000,,2013-01-02 00:12:00,
2013-01-01 15:22:00,29.0,23.0,-100.00,NW,311,7.0,12.0,78,0.00,,,0.00,15.000000,,2013-01-02 00:22:00,
2013-01-01 15:32:00,29.0,23.0,-100.00,NW,311,7.0,12.0,78,0.00,,,0.00,15.000000,,2013-01-02 00:32:00,
2013-01-01 15:52:00,28.0,24.0,-100.00,NW,310,7.0,15.0,85,0.01,,,0.01,4.000000,,2013-01-02 00:52:00,
2013-01-01 16:02:00,28.0,24.0,-100.00,NW,310,7.0,15.0,85,0.01,,,0.01,4.000000,,2013-01-02 01:02:00,
2013-01-01 16:12:00,28.0,24.0,-100.00,NW,310,7.0,15.0,85,0.01,,,0.01,4.000000,,2013-01-02 01:12:00,
2013-01-01 16:22:00,28.0,24.0,-100.00,NW,310,7.0,15.0,85,0.01,,,0.01,4.000000,,2013-01-02 01:22:00,
2013-01-01 16:32:00,28.0,24.0,-100.00,NW,310,7.0,15.0,85,0.01,,,0.01,4.000000,,2013-01-02 01:32:00,
2013-01-01 16:52:00,28.0,24.0,-100.00,WNW,295,7.0,12.0,85,-99.99,,,0.00,0.000000,,2013-01-02 01:52:00,
2013-01-01 17:02:00,28.0,24.0,-100.00,WNW,295,7.0,12.0,85,-99.99,,,0.00,0.000000,,2013-01-02 02:02:00,
2013-01-01 17:12:00,28.0,24.0,-100.00,WNW,295,7.0,12.0,85,-99.99,,,0.00,0.000000,,2013-01-02 02:12:00,
2013-01-01 17:22:00,28.0,24.0,-100.00,WNW,295,7.0,12.0,85,-99.99,,,0.00,0.000000,,2013-01-02 02:22:00,
2013-01-01 17:32:00,28.0,24.0,-100.00,WNW,295,7.0,12.0,85,-99.99,,,0.00,0.000000,,2013-01-02 02:32:00,
2013-01-01 17:53:00,28.0,24.0,-100.00,WNW,294,7.0,14.0,86,0.00,,,0.00,0.000000,,2013-01-02 02:53:00,
2013-01-01 18:02:00,28.0,24.0,-100.00,WNW,294,7.0,14.0,86,0.00,,,0.00,0.000000,,2013-01-02 03:02:00,
2013-01-01 18:11:00,28.0,24.0,-100.00,WNW,294,7.0,14.0,86,0.00,,,0.00,0.000000,,2013-01-02 03:11:00,
2013-01-01 18:22:00,28.0,24.0,-100.00,WNW,294,7.0,14.0,86,0.00,,,0.00,0.000000,,2013-01-02 03:22:00,
2013-01-01 18:32:00,28.0,24.0,-100.00,WNW,294,7.0,14.0,86,0.00,,,0.00,0.000000,,2013-01-02 03:32:00,
2013-01-01 18:53:00,28.0,24.0,-100.00,NW,320,7.0,13.0,84,0.00,,,0.00,0.000000,,2013-01-02 03:53:00,
2013-01-01 19:02:00,28.0,24.0,-100.00,NW,320,7.0,13.0,84,0.00,,,0.00,0.000000,,2013-01-02 04:02:00,
2013-01-01 19:12:00,28.0,24.0,-100.00,NW,320,7.0,13.0,84,0.00,,,0.00,0.000000,,2013-01-02 04:12:00,
2013-01-01 19:22:00,28.0,24.0,-100.00,NW,320,7.0,13.0,84,0.00,,,0.00,0.000000,,2013-01-02 04:22:00,
2013-01-01 19:32:00,28.0,24.0,-100.00,NW,320,7.0,13.0,84,0.00,,,0.00,0.000000,,2013-01-02 04:32:00,
2013-01-01 19:52:00,27.0,24.0,-100.00,WNW,297,7.0,14.0,89,0.00,,,0.00,0.000000,,2013-01-02 04:52:00,
2013-01-01 20:03:00,27.0,24.0,-100.00,WNW,297,7.0,14.0,89,0.00,,,0.00,0.000000,,2013-01-02 05:03:00,
2013-01-01 20:12:00,27.0,24.0,-100.00,WNW,297,7.0,14.0,89,0.00,,,0.00,0.000000,,2013-01-02 05:12:00,
2013-01-01 20:22:00,27.0,24.0,-100.00,WNW,297,7.0,14.0,89,0.00,,,0.00,0.000000,,2013-01-02 05:22:00,
2013-01-01 20:32:00,27.0,24.0,-100.00,WNW,297,7.0,14.0,89,0.00,,,0.00,0.000000,,2013-01-02 05:32:00,
2013-01-01 20:53:00,27.0,25.0,-100.00,WNW,285,6.0,9.0,92,0.00,,,0.00,0.000000,,2013-01-02 05:53:00,
2013-01-01 21:02:00,27.0,25.0,-100.00,WNW,285,6.0,9.0,92,0.00,,,0.00,0.000000,,2013-01-02 06:02:00,
2013-01-01 21:12:00,27.0,25.0,-100.00,WNW,285,6.0,9.0,92,0.00,,,0.00,0.000000,,2013-01-02 06:12:00,
2013-01-01 21:22:00,27.0,25.0,-100.00,WNW,285,6.0,9.0,92,0.00,,,0.00,0.000000,,2013-01-02 06:22:00,
2013-01-01 21:32:00,27.0,25.0,-100.00,WNW,285,6.0,9.0,92,0.00,,,0.00,0.000000,,2013-01-02 06:32:00,
2013-01-01 21:53:00,26.0,26.0,-100.00,SW,219,9.0,32.0,98,0.00,,,0.00,0.000000,,2013-01-02 06:53:00,
2013-01-01 22:02:00,26.0,26.0,-100.00,SW,219,9.0,32.0,98,0.00,,,0.00,0.000000,,2013-01-02 07:02:00,
2013-01-01 22:12:00,26.0,26.0,-100.00,SW,219,9.0,32.0,98,0.00,,,0.00,0.000000,,2013-01-02 07:12:00,
2013-01-01 22:22:00,26.0,26.0,-100.00,SW,219,9.0,32.0,98,0.00,,,0.00,0.000000,,2013-01-02 07:22:00,
2013-01-01 22:32:00,26.0,26.0,-100.00,SW,219,9.0,32.0,98,0.00,,,0.00,0.000000,,2013-01-02 07:32:00,
2013-01-01 22:52:00,23.0,22.0,-100.00,SSE,166,18.0,30.0,96,0.00,,,0.00,0.000000,,2013-01-02 07:52:00,
2013-01-01 23:02:00,23.0,22.0,-100.00,SSE,166,18.0,30.0,96,0.00,,,0.00,0.000000,,2013-01-02 08:02:00,
2013-01-01 23:11:00,23.0,22.0,-100.00,SSE,166,18.0,30.0,96,0.00,,,0.00,0.000000,,2013-01-02 08:11:00,
2013-01-01 23:22:00,23.0,22.0,-100.00,SSE,166,18.0,30.0,96,0.00,,,0.00,0.000000,,2013-01-02 08:22:00,
2013-01-01 23:32:00,23.0,22.0,-100.00,SSE,166,18.0,30.0,96,0.00,,,0.00,0.000000,,2013-01-02 08:32:00,
2013-01-01 23:53:00,23.0,21.0,-100.00,SSE,167,13.0,18.0,91,0.00,,,0.00,0.000000,,2013-01-02 08:53:00,